Location: Buckeye Ditch
(40.9104°N, 122.9517°W)
Time: 15:12:55
(UTC+00:00)

A-11 Canister half - Pass Details

Date: 23 May 2025
Orbit: 1515 x 1684 km, 47.2° (Epoch: 14 June)

Event Time Altitude Azimuth Distance (km) Brightness Sun altitude
Rises 06:39:33 0° 232° (SW) 4,809 11.5 -25.1°
Reaches altitude 10° 06:42:41 10° 231° (SW) 3,802 10.9 -25.3°
Maximum altitude 06:52:17 76° 147° (SSE) 1,596 8.8 -25.9°
Drops below altitude 10° 07:01:36 10° 64° (ENE) 3,697 11.1 -26.5°
Sets 07:04:36 0° 63° (ENE) 4,670 11.7 -26.7°
